TimeCDT,TemperatureF,Dew PointF,Humidity,Sea Level PressureIn,VisibilityMPH,Wind Direction,Wind SpeedMPH,Gust SpeedMPH,PrecipitationIn,Events,Conditions,WindDirDegrees,DateUTC
12:15 AM,59.9,51.8,75,30.07,10.0,SSW,8.1,-,N/A,,Overcast,200,2012-10-09 05:15:00
12:35 AM,59.9,51.8,75,30.07,10.0,South,6.9,-,N/A,,Overcast,190,2012-10-09 05:35:00
12:55 AM,59.9,51.8,75,30.06,10.0,South,6.9,-,N/A,,Overcast,190,2012-10-09 05:55:00
1:15 AM,59.9,51.8,75,30.06,10.0,South,8.1,-,N/A,,Overcast,190,2012-10-09 06:15:00
1:35 AM,60.1,52.0,75,30.05,10.0,SSW,8.1,-,N/A,,Overcast,200,2012-10-09 06:35:00
1:55 AM,60.1,51.8,74,30.05,10.0,SSW,9.2,-,N/A,,Overcast,200,2012-10-09 06:55:00
2:15 AM,60.1,52.0,75,30.05,10.0,SSW,10.4,-,N/A,,Overcast,200,2012-10-09 07:15:00
2:55 AM,59.9,52.7,77,-9999,10.0,SSW,8.1,-,N/A,,Overcast,200,2012-10-09 07:55:00
3:15 AM,59.9,52.5,77,30.04,10.0,South,6.9,-,N/A,,Overcast,190,2012-10-09 08:15:00
3:35 AM,59.9,52.2,76,30.04,10.0,SSW,8.1,-,N/A,,Overcast,200,2012-10-09 08:35:00
4:15 AM,59.9,52.2,76,30.03,10.0,South,9.2,-,N/A,,Overcast,190,2012-10-09 09:15:00
4:35 AM,59.9,52.2,76,30.02,10.0,SSW,8.1,-,N/A,,Overcast,200,2012-10-09 09:35:00
4:55 AM,59.9,52.2,76,30.02,10.0,SSW,8.1,-,N/A,,Overcast,200,2012-10-09 09:55:00
5:15 AM,59.9,52.3,76,30.02,10.0,SSW,9.2,-,N/A,,Overcast,210,2012-10-09 10:15:00
5:35 AM,59.9,52.7,77,30.03,10.0,SSW,10.4,-,N/A,,Overcast,210,2012-10-09 10:35:00
5:55 AM,60.1,52.7,77,30.04,10.0,SSW,6.9,-,N/A,,Overcast,210,2012-10-09 10:55:00
6:15 AM,60.1,52.7,77,30.03,10.0,SSW,9.2,-,N/A,,Overcast,200,2012-10-09 11:15:00
6:35 AM,60.1,52.7,77,30.04,10.0,SSW,9.2,17.3,N/A,,Overcast,200,2012-10-09 11:35:00
6:55 AM,60.1,52.5,76,30.04,10.0,SSW,12.7,-,N/A,,Overcast,200,2012-10-09 11:55:00
7:15 AM,60.1,53.1,78,30.04,10.0,SSW,8.1,-,N/A,,Overcast,200,2012-10-09 12:15:00
7:35 AM,60.1,53.6,79,30.04,10.0,SSW,10.4,-,N/A,,Overcast,200,2012-10-09 12:35:00
7:55 AM,60.3,54.1,80,30.04,10.0,SSW,6.9,-,N/A,,Overcast,210,2012-10-09 12:55:00
8:15 AM,60.8,55.0,81,30.05,10.0,SSW,10.4,-,N/A,,Overcast,210,2012-10-09 13:15:00
8:35 AM,60.8,55.8,83,30.05,10.0,SSW,10.4,-,N/A,,Overcast,200,2012-10-09 13:35:00
8:55 AM,61.2,56.5,85,30.06,10.0,SSW,8.1,16.1,N/A,,Overcast,210,2012-10-09 13:55:00
9:15 AM,61.7,57.2,85,30.06,10.0,SSW,11.5,-,N/A,,Overcast,200,2012-10-09 14:15:00
9:35 AM,62.6,57.4,83,30.07,10.0,SSW,11.5,17.3,N/A,,Overcast,210,2012-10-09 14:35:00
9:55 AM,63.5,58.1,83,30.07,10.0,SSW,12.7,-,N/A,,Overcast,200,2012-10-09 14:55:00
10:15 AM,64.4,59.2,83,30.08,10.0,SSW,17.3,21.9,N/A,,Overcast,210,2012-10-09 15:15:00
10:35 AM,65.3,59.9,83,30.08,10.0,SSW,16.1,19.6,N/A,,Overcast,200,2012-10-09 15:35:00
10:55 AM,66.2,60.6,82,30.08,10.0,SSW,13.8,-,N/A,,Overcast,200,2012-10-09 15:55:00
11:15 AM,67.6,61.7,81,30.07,10.0,South,16.1,21.9,N/A,,Overcast,190,2012-10-09 16:15:00
11:35 AM,68.9,62.1,79,30.07,10.0,SSW,16.1,21.9,N/A,,Overcast,210,2012-10-09 16:35:00
11:55 AM,68.5,62.2,80,30.07,10.0,SSW,19.6,27.6,N/A,,Overcast,210,2012-10-09 16:55:00
12:15 PM,70.9,63.3,77,30.06,10.0,South,17.3,24.2,N/A,,Mostly Cloudy,190,2012-10-09 17:15:00
12:35 PM,71.1,62.8,75,30.05,10.0,SSW,15.0,27.6,N/A,,Overcast,210,2012-10-09 17:35:00
12:55 PM,71.1,62.8,75,30.05,10.0,SSW,20.7,25.3,N/A,,Overcast,210,2012-10-09 17:55:00
1:15 PM,73.2,63.1,71,30.03,10.0,SSW,19.6,29.9,N/A,,Mostly Cloudy,200,2012-10-09 18:15:00
1:35 PM,73.4,63.1,70,30.02,10.0,SSW,21.9,25.3,N/A,,Mostly Cloudy,210,2012-10-09 18:35:00
1:55 PM,74.5,63.0,67,30.01,10.0,SW,20.7,26.5,N/A,,Mostly Cloudy,220,2012-10-09 18:55:00
2:15 PM,74.8,63.1,67,30.00,10.0,SSW,21.9,29.9,N/A,,Mostly Cloudy,200,2012-10-09 19:15:00
2:35 PM,75.7,63.3,65,29.99,10.0,SSW,15.0,24.2,N/A,,Mostly Cloudy,210,2012-10-09 19:35:00
2:55 PM,75.4,62.8,65,29.98,10.0,SSW,18.4,26.5,N/A,,Scattered Clouds,210,2012-10-09 19:55:00
3:15 PM,75.6,63.1,65,29.98,10.0,SSW,19.6,26.5,N/A,,Clear,200,2012-10-09 20:15:00
3:35 PM,76.3,63.1,64,29.97,10.0,SW,15.0,23.0,N/A,,Clear,220,2012-10-09 20:35:00
3:55 PM,77.0,62.6,61,29.97,10.0,SW,16.1,23.0,N/A,,Clear,220,2012-10-09 20:55:00
4:15 PM,77.0,62.4,61,29.97,10.0,SW,15.0,21.9,N/A,,Clear,220,2012-10-09 21:15:00
4:35 PM,76.8,63.1,63,29.96,10.0,SSW,13.8,-,N/A,,Clear,210,2012-10-09 21:35:00
4:55 PM,77.0,62.8,61,29.95,10.0,South,16.1,20.7,N/A,,Clear,190,2012-10-09 21:55:00
5:15 PM,77.0,63.1,62,29.96,10.0,SSW,10.4,18.4,N/A,,Clear,210,2012-10-09 22:15:00
5:35 PM,77.0,62.4,61,29.96,10.0,SSW,12.7,-,N/A,,Clear,210,2012-10-09 22:35:00
5:55 PM,76.1,62.2,62,29.96,10.0,SSW,10.4,-,N/A,,Clear,210,2012-10-09 22:55:00
6:15 PM,75.4,62.4,64,29.96,10.0,SSW,12.7,-,N/A,,Clear,200,2012-10-09 23:15:00
6:35 PM,74.1,62.4,67,29.96,10.0,South,11.5,-,N/A,,Clear,190,2012-10-09 23:35:00
6:55 PM,72.9,62.1,69,29.97,10.0,South,11.5,-,N/A,,Clear,190,2012-10-09 23:55:00
7:15 PM,72.0,61.7,70,29.97,10.0,South,9.2,-,N/A,,Clear,190,2012-10-10 00:15:00
7:35 PM,70.5,61.7,74,29.98,10.0,South,4.6,-,N/A,,Clear,190,2012-10-10 00:35:00
7:55 PM,69.8,61.9,76,29.98,10.0,SSW,5.8,-,N/A,,Clear,200,2012-10-10 00:55:00
8:15 PM,68.9,61.7,78,29.98,10.0,SW,4.6,-,N/A,,Clear,220,2012-10-10 01:15:00
8:35 PM,68.0,61.3,79,29.99,10.0,SW,3.5,-,N/A,,Clear,220,2012-10-10 01:35:00
8:55 PM,66.7,61.2,82,29.99,10.0,Calm,Calm,-,N/A,,Clear,0,2012-10-10 01:55:00
9:15 PM,64.0,60.6,89,30.00,10.0,Calm,Calm,-,N/A,,Clear,0,2012-10-10 02:15:00
9:35 PM,66.9,61.2,82,30.00,10.0,Calm,Calm,-,N/A,,Clear,0,2012-10-10 02:35:00
9:55 PM,63.7,60.3,89,30.01,10.0,Calm,Calm,-,N/A,,Clear,0,2012-10-10 02:55:00
10:15 PM,64.0,60.8,89,30.01,10.0,WNW,4.6,-,N/A,,Clear,290,2012-10-10 03:15:00
10:35 PM,63.5,60.8,91,30.01,10.0,West,4.6,-,N/A,,Clear,270,2012-10-10 03:35:00
10:55 PM,63.7,60.8,90,30.02,10.0,West,3.5,-,N/A,,Clear,280,2012-10-10 03:55:00
11:15 PM,62.8,60.1,91,30.02,10.0,SW,4.6,-,N/A,,Clear,230,2012-10-10 04:15:00
11:35 PM,61.7,60.3,95,30.02,10.0,SW,4.6,-,N/A,,Clear,230,2012-10-10 04:35:00
11:55 PM,61.3,60.3,96,30.02,10.0,Calm,Calm,-,N/A,,Clear,0,2012-10-10 04:55:00